Time,TemperatureF,DewpointF,PressureIn,WindDirection,WindDirectionDegrees,WindSpeedMPH,WindSpeedGustMPH,Humidity,HourlyPrecipIn,Conditions,Clouds,dailyrainin,SoftwareType,DateUTC
2013-01-06 00:00:00,5.5,-9.9,29.32,West,270,0.0,0.0,48,0.00,,---,0.00,VWS V14.01,2013-01-06 05:00:00,
2013-01-06 00:01:00,5.5,-9.9,29.32,West,270,0.0,0.0,48,0.00,,---,0.00,VWS V14.01,2013-01-06 05:01:00,
2013-01-06 00:06:00,5.7,-9.7,29.32,West,270,0.0,0.0,48,0.00,,---,0.00,VWS V14.01,2013-01-06 05:06:00,
2013-01-06 00:11:00,5.9,-9.6,29.32,West,270,0.0,0.0,48,0.00,,---,0.00,VWS V14.01,2013-01-06 05:11:00,
2013-01-06 00:15:00,5.9,-9.6,29.32,WSW,248,0.0,0.9,48,0.00,,---,0.00,VWS V14.01,2013-01-06 05:15:00,
2013-01-06 00:20:00,5.9,-9.6,29.32,WSW,248,0.0,0.0,48,0.00,,---,0.00,VWS V14.01,2013-01-06 05:20:00,
2013-01-06 00:25:00,6.1,-9.4,29.32,WSW,248,0.0,0.0,48,0.00,,---,0.00,VWS V14.01,2013-01-06 05:25:00,
2013-01-06 00:30:00,6.3,-9.2,29.32,WSW,248,0.0,0.0,48,0.00,,---,0.00,VWS V14.01,2013-01-06 05:30:00,
2013-01-06 00:35:00,6.3,-9.2,29.32,WSW,248,0.0,0.0,48,0.00,,---,0.00,VWS V14.01,2013-01-06 05:35:00,
2013-01-06 00:40:00,6.6,-8.9,29.32,WSW,248,0.0,0.0,48,0.00,,---,0.00,VWS V14.01,2013-01-06 05:40:00,
2013-01-06 00:45:00,6.8,-8.7,29.32,WSW,248,0.0,0.0,48,0.00,,---,0.00,VWS V14.01,2013-01-06 05:45:00,
2013-01-06 00:50:00,6.8,-8.7,29.29,WSW,248,0.0,0.0,48,0.00,,---,0.00,VWS V14.01,2013-01-06 05:50:00,
2013-01-06 00:55:00,6.8,-8.7,29.29,WSW,248,0.0,0.0,48,0.00,,---,0.00,VWS V14.01,2013-01-06 05:55:00,
2013-01-06 01:00:00,6.8,-8.7,29.29,WSW,248,0.0,0.0,48,0.00,,---,0.00,VWS V14.01,2013-01-06 06:00:00,
2013-01-06 01:05:00,6.8,-8.7,29.29,WSW,248,0.0,0.0,48,0.00,,---,0.00,VWS V14.01,2013-01-06 06:05:00,
2013-01-06 01:10:00,7.0,-8.6,29.29,WSW,248,0.0,0.0,48,0.00,,---,0.00,VWS V14.01,2013-01-06 06:10:00,
2013-01-06 01:15:00,7.0,-8.6,29.29,WSW,248,0.0,0.0,48,0.00,,---,0.00,VWS V14.01,2013-01-06 06:15:00,
2013-01-06 01:20:00,7.2,-8.4,29.26,WSW,248,0.0,0.0,48,0.00,,---,0.00,VWS V14.01,2013-01-06 06:20:00,
2013-01-06 01:25:00,7.2,-8.4,29.26,WSW,248,0.0,0.0,48,0.00,,---,0.00,VWS V14.01,2013-01-06 06:25:00,
2013-01-06 01:30:00,7.3,-8.2,29.26,WSW,248,0.0,0.0,48,0.00,,---,0.00,VWS V14.01,2013-01-06 06:30:00,
2013-01-06 01:35:00,7.5,-8.1,29.26,WSW,248,0.0,0.0,48,0.00,,---,0.00,VWS V14.01,2013-01-06 06:35:00,
2013-01-06 01:40:00,7.7,-7.9,29.26,WSW,248,0.0,0.0,48,0.00,,---,0.00,VWS V14.01,2013-01-06 06:40:00,
2013-01-06 01:45:00,7.7,-7.9,29.26,WSW,248,2.2,2.2,48,0.00,,---,0.00,VWS V14.01,2013-01-06 06:45:00,
2013-01-06 01:50:00,7.9,-7.7,29.29,WSW,248,0.0,0.0,48,0.00,,---,0.00,VWS V14.01,2013-01-06 06:50:00,
2013-01-06 01:55:00,7.9,-7.7,29.29,WSW,248,0.0,0.0,48,0.00,,---,0.00,VWS V14.01,2013-01-06 06:55:00,
2013-01-06 02:00:00,8.1,-7.6,29.29,WSW,248,0.0,0.0,48,0.00,,---,0.00,VWS V14.01,2013-01-06 07:00:00,
2013-01-06 02:05:00,8.2,-7.4,29.29,WSW,248,0.0,0.0,48,0.00,,---,0.00,VWS V14.01,2013-01-06 07:05:00,
2013-01-06 02:10:00,8.4,-7.2,29.26,WSW,248,0.0,0.0,48,0.00,,---,0.00,VWS V14.01,2013-01-06 07:10:00,
2013-01-06 02:15:00,8.4,-7.2,29.26,WSW,248,0.0,0.0,48,0.00,,---,0.00,VWS V14.01,2013-01-06 07:15:00,
2013-01-06 02:20:00,8.4,-7.2,29.26,WSW,248,0.0,0.0,48,0.00,,---,0.00,VWS V14.01,2013-01-06 07:20:00,
2013-01-06 02:25:00,8.4,-7.2,29.26,WSW,248,0.0,0.0,48,0.00,,---,0.00,VWS V14.01,2013-01-06 07:25:00,
2013-01-06 02:30:00,8.6,-7.1,29.26,WSW,248,0.0,0.0,48,0.00,,---,0.00,VWS V14.01,2013-01-06 07:30:00,
2013-01-06 02:35:00,8.4,-7.2,29.26,WSW,248,0.0,0.0,48,0.00,,---,0.00,VWS V14.01,2013-01-06 07:35:00,
2013-01-06 02:40:00,8.4,-7.2,29.26,WSW,248,0.0,0.0,48,0.00,,---,0.00,VWS V14.01,2013-01-06 07:40:00,
2013-01-06 02:45:00,8.4,-7.2,29.26,WSW,248,0.0,0.0,48,0.00,,---,0.00,VWS V14.01,2013-01-06 07:45:00,
2013-01-06 02:50:00,8.6,-7.1,29.23,WSW,248,0.0,0.0,48,0.00,,---,0.00,VWS V14.01,2013-01-06 07:50:00,
2013-01-06 02:55:00,8.6,-7.1,29.23,WSW,248,0.0,0.0,48,0.00,,---,0.00,VWS V14.01,2013-01-06 07:55:00,
2013-01-06 03:00:00,8.8,-6.9,29.23,WSW,248,0.0,0.0,48,0.00,,---,0.00,VWS V14.01,2013-01-06 08:00:00,
2013-01-06 03:05:00,8.8,-6.9,29.23,WSW,248,0.0,0.0,48,0.00,,---,0.00,VWS V14.01,2013-01-06 08:05:00,
2013-01-06 03:10:00,9.0,-6.7,29.23,SW,225,0.0,0.0,48,0.00,,---,0.00,VWS V14.01,2013-01-06 08:10:00,
2013-01-06 03:15:00,9.0,-6.7,29.23,SW,225,0.0,0.0,48,0.00,,---,0.00,VWS V14.01,2013-01-06 08:15:00,
2013-01-06 03:20:00,9.1,-6.6,29.23,SW,225,0.0,0.0,48,0.00,,---,0.00,VWS V14.01,2013-01-06 08:20:00,
2013-01-06 03:25:00,9.3,-6.4,29.23,SW,225,0.0,0.0,48,0.00,,---,0.00,VWS V14.01,2013-01-06 08:25:00,
2013-01-06 03:30:00,9.5,-6.2,29.23,SW,225,0.0,0.0,48,0.00,,---,0.00,VWS V14.01,2013-01-06 08:30:00,
2013-01-06 03:35:00,9.5,-6.2,29.20,SW,225,0.0,0.0,48,0.00,,---,0.00,VWS V14.01,2013-01-06 08:35:00,
2013-01-06 03:40:00,9.7,-6.1,29.20,SW,225,0.0,0.0,48,0.00,,---,0.00,VWS V14.01,2013-01-06 08:40:00,
2013-01-06 03:45:00,9.7,-6.1,29.20,SW,225,0.0,0.0,48,0.00,,---,0.00,VWS V14.01,2013-01-06 08:45:00,
2013-01-06 03:50:00,10.0,-5.7,29.20,SW,225,0.0,0.0,48,0.00,,---,0.00,VWS V14.01,2013-01-06 08:50:00,
2013-01-06 03:55:00,10.0,-5.7,29.20,SW,225,0.0,1.3,48,0.00,,---,0.00,VWS V14.01,2013-01-06 08:55:00,
2013-01-06 04:00:00,10.0,-5.7,29.20,SW,225,0.0,0.0,48,0.00,,---,0.00,VWS V14.01,2013-01-06 09:00:00,
2013-01-06 04:05:00,10.0,-5.7,29.20,SW,225,0.0,0.0,48,0.00,,---,0.00,VWS V14.01,2013-01-06 09:05:00,
2013-01-06 04:10:00,10.2,-5.6,29.20,SW,225,0.0,0.0,48,0.00,,---,0.00,VWS V14.01,2013-01-06 09:10:00,
2013-01-06 04:15:00,10.2,-5.6,29.20,SW,225,0.0,0.0,48,0.00,,---,0.00,VWS V14.01,2013-01-06 09:15:00,
2013-01-06 04:20:00,10.2,-5.6,29.17,SW,225,0.0,0.0,48,0.00,,---,0.00,VWS V14.01,2013-01-06 09:20:00,
2013-01-06 04:25:00,10.4,-5.4,29.17,SW,225,0.0,0.0,48,0.00,,---,0.00,VWS V14.01,2013-01-06 09:25:00,
2013-01-06 04:30:00,10.6,-5.2,29.17,SW,225,0.0,0.0,48,0.00,,---,0.00,VWS V14.01,2013-01-06 09:30:00,
2013-01-06 04:35:00,10.8,-5.1,29.17,SW,225,0.0,0.0,48,0.00,,---,0.00,VWS V14.01,2013-01-06 09:35:00,
2013-01-06 04:40:00,10.9,-4.9,29.17,SW,225,0.0,0.0,48,0.00,,---,0.00,VWS V14.01,2013-01-06 09:40:00,
2013-01-06 04:45:00,10.9,-4.9,29.17,SW,225,0.0,0.0,48,0.00,,---,0.00,VWS V14.01,2013-01-06 09:45:00,
2013-01-06 04:50:00,10.9,-4.9,29.17,SW,225,0.0,0.0,48,0.00,,---,0.00,VWS V14.01,2013-01-06 09:50:00,
2013-01-06 04:55:00,10.9,-4.9,29.17,SW,225,0.0,0.0,48,0.00,,---,0.00,VWS V14.01,2013-01-06 09:55:00,
2013-01-06 05:00:00,11.1,-4.7,29.17,SW,225,0.0,0.0,48,0.00,,---,0.00,VWS V14.01,2013-01-06 10:00:00,
2013-01-06 05:05:00,11.1,-4.7,29.17,SW,225,0.0,0.0,48,0.00,,---,0.00,VWS V14.01,2013-01-06 10:05:00,
2013-01-06 05:10:00,11.3,-4.6,29.17,SSW,202,0.0,0.0,48,0.00,,---,0.00,VWS V14.01,2013-01-06 10:10:00,
2013-01-06 05:15:00,11.5,-4.4,29.17,SSW,202,0.0,0.0,48,0.00,,---,0.00,VWS V14.01,2013-01-06 10:15:00,
2013-01-06 05:20:00,11.5,-4.4,29.14,South,180,0.0,0.0,48,0.00,,---,0.00,VWS V14.01,2013-01-06 10:20:00,
2013-01-06 05:25:00,11.7,-4.2,29.14,South,180,0.0,0.0,48,0.00,,---,0.00,VWS V14.01,2013-01-06 10:25:00,
2013-01-06 05:30:00,11.7,-4.2,29.14,South,180,0.0,0.0,48,0.00,,---,0.00,VWS V14.01,2013-01-06 10:30:00,
2013-01-06 05:35:00,11.7,-4.2,29.12,South,180,0.0,0.0,48,0.00,,---,0.00,VWS V14.01,2013-01-06 10:35:00,
2013-01-06 05:40:00,11.5,-4.4,29.12,South,180,0.0,0.0,48,0.00,,---,0.00,VWS V14.01,2013-01-06 10:40:00,
2013-01-06 05:45:00,11.5,-4.4,29.12,South,180,0.0,0.0,48,0.00,,---,0.00,VWS V14.01,2013-01-06 10:45:00,
2013-01-06 05:50:00,11.7,-4.2,29.12,South,180,0.0,0.0,48,0.00,,---,0.00,VWS V14.01,2013-01-06 10:50:00,
2013-01-06 05:55:00,11.7,-4.2,29.12,South,180,0.0,0.0,48,0.00,,---,0.00,VWS V14.01,2013-01-06 10:55:00,
2013-01-06 06:00:00,11.8,-4.1,29.12,South,180,0.0,0.0,48,0.00,,---,0.00,VWS V14.01,2013-01-06 11:00:00,
2013-01-06 06:05:00,11.8,-4.1,29.12,South,180,0.0,0.0,48,0.00,,---,0.00,VWS V14.01,2013-01-06 11:05:00,
2013-01-06 06:10:00,12.0,-3.9,29.12,South,180,0.0,0.0,48,0.00,,---,0.00,VWS V14.01,2013-01-06 11:10:00,
2013-01-06 06:15:00,12.0,-3.9,29.12,South,180,0.0,0.0,48,0.00,,---,0.00,VWS V14.01,2013-01-06 11:15:00,
2013-01-06 06:20:00,12.2,-3.7,29.12,South,180,0.0,0.0,48,0.00,,---,0.00,VWS V14.01,2013-01-06 11:20:00,
2013-01-06 06:25:00,12.4,-3.6,29.12,South,180,0.0,0.0,48,0.00,,---,0.00,VWS V14.01,2013-01-06 11:25:00,
2013-01-06 06:30:00,12.6,-3.4,29.12,South,180,0.0,0.0,48,0.00,,---,0.00,VWS V14.01,2013-01-06 11:30:00,
2013-01-06 06:35:00,12.6,-3.4,29.12,South,180,0.0,0.0,48,0.00,,---,0.00,VWS V14.01,2013-01-06 11:35:00,
2013-01-06 06:40:00,12.6,-3.4,29.12,South,180,0.0,0.0,48,0.00,,---,0.00,VWS V14.01,2013-01-06 11:40:00,
2013-01-06 06:45:00,12.7,-3.2,29.12,SSW,202,0.0,0.0,48,0.00,,---,0.00,VWS V14.01,2013-01-06 11:45:00,
2013-01-06 06:50:00,12.9,-3.1,29.12,SSW,202,0.0,0.0,48,0.00,,---,0.00,VWS V14.01,2013-01-06 11:50:00,
2013-01-06 06:55:00,12.9,-3.1,29.12,SSW,202,0.0,0.0,48,0.00,,---,0.00,VWS V14.01,2013-01-06 11:55:00,
2013-01-06 07:00:00,12.9,-3.1,29.12,SSW,202,0.0,0.0,48,0.00,,---,0.00,VWS V14.01,2013-01-06 12:00:00,
2013-01-06 07:05:00,13.3,-2.7,29.12,SSW,202,0.0,0.0,48,0.00,,---,0.00,VWS V14.01,2013-01-06 12:05:00,
2013-01-06 07:10:00,13.1,-2.9,29.12,SSW,202,0.0,0.0,48,0.00,,---,0.00,VWS V14.01,2013-01-06 12:10:00,
2013-01-06 07:15:00,13.1,-2.9,29.12,SSW,202,0.0,0.0,48,0.00,,---,0.00,VWS V14.01,2013-01-06 12:15:00,
2013-01-06 07:20:00,13.1,-2.9,29.12,SSW,202,0.0,0.0,48,0.00,,---,0.00,VWS V14.01,2013-01-06 12:20:00,
2013-01-06 07:25:00,13.3,-2.7,29.12,SSW,202,0.0,0.0,48,0.00,,---,0.00,VWS V14.01,2013-01-06 12:25:00,
2013-01-06 07:30:00,13.3,-2.7,29.12,SSW,202,0.0,0.0,48,0.00,,---,0.00,VWS V14.01,2013-01-06 12:30:00,
2013-01-06 07:35:00,13.5,-2.6,29.12,SSW,202,0.0,0.0,48,0.00,,---,0.00,VWS V14.01,2013-01-06 12:35:00,
2013-01-06 07:40:00,13.6,-2.4,29.12,SSW,202,0.0,0.0,48,0.00,,---,0.00,VWS V14.01,2013-01-06 12:40:00,
2013-01-06 07:45:00,14.0,2.3,29.12,SSW,202,0.0,0.0,59,0.00,,---,0.00,VWS V14.01,2013-01-06 12:45:00,
2013-01-06 07:50:00,14.4,2.7,29.12,SSW,202,0.0,0.0,59,0.00,,---,0.00,VWS V14.01,2013-01-06 12:50:00,
2013-01-06 07:55:00,14.5,2.8,29.12,SSW,202,0.0,0.0,59,0.00,,---,0.00,VWS V14.01,2013-01-06 12:55:00,
2013-01-06 08:00:00,14.9,3.2,29.12,SSW,202,0.0,0.0,59,0.00,,---,0.00,VWS V14.01,2013-01-06 13:00:00,
2013-01-06 08:05:00,15.1,3.3,29.09,SSW,202,0.0,0.0,59,0.00,,---,0.00,VWS V14.01,2013-01-06 13:05:00,
2013-01-06 08:10:00,15.1,3.3,29.09,SSW,202,0.0,0.0,59,0.00,,---,0.00,VWS V14.01,2013-01-06 13:10:00,
2013-01-06 08:15:00,15.6,3.8,29.09,SSW,202,0.0,0.0,59,0.00,,---,0.00,VWS V14.01,2013-01-06 13:15:00,
2013-01-06 08:20:00,16.0,4.2,29.09,SSW,202,0.0,0.0,59,0.00,,---,0.00,VWS V14.01,2013-01-06 13:20:00,
2013-01-06 08:25:00,16.5,4.7,29.09,SSW,202,0.0,0.0,59,0.00,,---,0.00,VWS V14.01,2013-01-06 13:25:00,
2013-01-06 08:30:00,16.7,4.9,29.09,South,180,0.0,0.0,59,0.00,,---,0.00,VWS V14.01,2013-01-06 13:30:00,
2013-01-06 08:35:00,17.1,5.6,29.09,South,180,0.0,0.0,60,0.00,,---,0.00,VWS V14.01,2013-01-06 13:35:00,
2013-01-06 08:40:00,17.4,5.9,29.09,South,180,0.0,0.0,60,0.00,,---,0.00,VWS V14.01,2013-01-06 13:40:00,
2013-01-06 08:45:00,17.1,5.2,29.09,South,180,0.0,0.0,59,0.00,,---,0.00,VWS V14.01,2013-01-06 13:45:00,
2013-01-06 08:50:00,17.2,5.4,29.09,South,180,0.0,0.0,59,0.00,,---,0.00,VWS V14.01,2013-01-06 13:50:00,
2013-01-06 08:55:00,18.3,6.4,29.09,South,180,0.0,0.0,59,0.00,,---,0.00,VWS V14.01,2013-01-06 13:55:00,
2013-01-06 09:00:00,18.3,6.4,29.09,South,180,0.0,0.0,59,0.00,,---,0.00,VWS V14.01,2013-01-06 14:00:00,
2013-01-06 09:05:00,18.5,6.6,29.09,South,180,0.0,0.0,59,0.00,,---,0.00,VWS V14.01,2013-01-06 14:05:00,
2013-01-06 09:10:00,19.2,7.2,29.09,South,180,0.0,0.0,59,0.00,,---,0.00,VWS V14.01,2013-01-06 14:10:00,
2013-01-06 09:15:00,19.9,7.9,29.09,South,180,0.0,0.0,59,0.00,,---,0.00,VWS V14.01,2013-01-06 14:15:00,
2013-01-06 09:20:00,20.1,8.1,29.09,South,180,0.0,0.0,59,0.00,,---,0.00,VWS V14.01,2013-01-06 14:20:00,
2013-01-06 09:25:00,20.7,8.6,29.09,South,180,0.0,0.0,59,0.00,,---,0.00,VWS V14.01,2013-01-06 14:25:00,
2013-01-06 09:30:00,20.8,8.8,29.09,South,180,0.0,0.0,59,0.00,,---,0.00,VWS V14.01,2013-01-06 14:30:00,
2013-01-06 09:35:00,21.2,9.1,29.09,South,180,0.0,0.0,59,0.00,,---,0.00,VWS V14.01,2013-01-06 14:35:00,
2013-01-06 09:40:00,21.9,9.8,29.09,South,180,0.0,0.0,59,0.00,,---,0.00,VWS V14.01,2013-01-06 14:40:00,
2013-01-06 09:45:00,21.9,9.8,29.09,South,180,0.0,0.0,59,0.00,,---,0.00,VWS V14.01,2013-01-06 14:45:00,
2013-01-06 09:50:00,22.5,10.3,29.09,South,180,0.0,0.0,59,0.00,,---,0.00,VWS V14.01,2013-01-06 14:50:00,
2013-01-06 09:55:00,23.0,10.8,29.09,South,180,0.0,0.0,59,0.00,,---,0.00,VWS V14.01,2013-01-06 14:55:00,
2013-01-06 10:00:00,23.7,11.5,29.09,South,180,0.0,0.0,59,0.00,,---,0.00,VWS V14.01,2013-01-06 15:00:00,
2013-01-06 10:05:00,23.7,11.5,29.09,South,180,0.0,0.0,59,0.00,,---,0.00,VWS V14.01,2013-01-06 15:05:00,
2013-01-06 10:10:00,24.3,12.0,29.09,South,180,0.0,0.0,59,0.00,,---,0.00,VWS V14.01,2013-01-06 15:10:00,
2013-01-06 10:15:00,24.1,11.5,29.09,South,180,0.0,0.0,58,0.00,,---,0.00,VWS V14.01,2013-01-06 15:15:00,
2013-01-06 10:19:00,24.4,11.8,29.09,South,180,0.0,0.0,58,0.00,,---,0.00,VWS V14.01,2013-01-06 15:19:00,
2013-01-06 10:24:00,24.3,11.6,29.09,South,180,0.0,0.0,58,0.00,,---,0.00,VWS V14.01,2013-01-06 15:24:00,
2013-01-06 10:29:00,24.3,11.6,29.09,South,180,0.0,0.0,58,0.00,,---,0.00,VWS V14.01,2013-01-06 15:29:00,
2013-01-06 10:34:00,24.6,12.0,29.09,South,180,0.0,0.0,58,0.00,,---,0.00,VWS V14.01,2013-01-06 15:34:00,
2013-01-06 10:39:00,25.3,12.6,29.09,South,180,0.0,0.0,58,0.00,,---,0.00,VWS V14.01,2013-01-06 15:39:00,
2013-01-06 10:44:00,25.3,12.6,29.09,South,180,0.0,0.0,58,0.00,,---,0.00,VWS V14.01,2013-01-06 15:44:00,
2013-01-06 10:49:00,26.1,13.3,29.06,South,180,0.0,0.0,58,0.00,,---,0.00,VWS V14.01,2013-01-06 15:49:00,
2013-01-06 10:54:00,26.2,13.1,29.06,South,180,0.0,0.0,57,0.00,,---,0.00,VWS V14.01,2013-01-06 15:54:00,
2013-01-06 10:59:00,26.8,13.6,29.06,South,180,0.0,0.0,57,0.00,,---,0.00,VWS V14.01,2013-01-06 15:59:00,
2013-01-06 11:04:00,27.1,13.9,29.06,South,180,0.0,0.0,57,0.00,,---,0.00,VWS V14.01,2013-01-06 16:04:00,
2013-01-06 11:09:00,27.7,14.4,29.06,SSW,202,0.0,0.0,57,0.00,,---,0.00,VWS V14.01,2013-01-06 16:09:00,
2013-01-06 11:14:00,27.1,13.9,29.06,SSW,202,0.0,0.0,57,0.00,,---,0.00,VWS V14.01,2013-01-06 16:14:00,
2013-01-06 11:19:00,27.0,13.8,29.06,SSW,202,0.0,0.0,57,0.00,,---,0.00,VWS V14.01,2013-01-06 16:19:00,
2013-01-06 11:24:00,26.1,12.9,29.06,SSW,202,0.0,0.0,57,0.00,,---,0.00,VWS V14.01,2013-01-06 16:24:00,
2013-01-06 11:29:00,26.1,12.9,29.06,SSW,202,0.0,0.0,57,0.00,,---,0.00,VWS V14.01,2013-01-06 16:29:00,
2013-01-06 11:34:00,26.4,13.7,29.03,SSW,202,0.0,0.0,58,0.00,,---,0.00,VWS V14.01,2013-01-06 16:34:00,
2013-01-06 11:39:00,27.0,13.8,29.03,SSW,202,0.0,0.0,57,0.00,,---,0.00,VWS V14.01,2013-01-06 16:39:00,
2013-01-06 11:44:00,27.1,13.9,29.03,SSW,202,0.0,0.0,57,0.00,,---,0.00,VWS V14.01,2013-01-06 16:44:00,
2013-01-06 11:49:00,27.0,13.8,29.03,SSW,202,0.0,0.0,57,0.00,,---,0.00,VWS V14.01,2013-01-06 16:49:00,
2013-01-06 11:54:00,26.4,13.7,29.03,SSW,202,0.0,0.0,58,0.00,,---,0.00,VWS V14.01,2013-01-06 16:54:00,
2013-01-06 11:59:00,26.6,13.8,29.03,SSW,202,0.0,0.0,58,0.00,,---,0.00,VWS V14.01,2013-01-06 16:59:00,
2013-01-06 12:04:00,27.0,14.2,29.03,SSW,202,0.0,0.0,58,0.00,,---,0.00,VWS V14.01,2013-01-06 17:04:00,
2013-01-06 12:09:00,27.0,14.2,29.03,SSW,202,0.0,0.0,58,0.00,,---,0.00,VWS V14.01,2013-01-06 17:09:00,
2013-01-06 12:14:00,27.0,14.2,29.03,SSW,202,0.0,0.0,58,0.00,,---,0.00,VWS V14.01,2013-01-06 17:14:00,
2013-01-06 12:19:00,27.0,14.2,29.03,ESE,112,2.7,2.7,58,0.00,,---,0.00,VWS V14.01,2013-01-06 17:19:00,
2013-01-06 12:24:00,26.6,14.2,29.03,ESE,112,0.0,0.0,59,0.00,,---,0.00,VWS V14.01,2013-01-06 17:24:00,
2013-01-06 12:29:00,26.8,14.4,29.03,ESE,112,0.0,0.0,59,0.00,,---,0.00,VWS V14.01,2013-01-06 17:29:00,
2013-01-06 12:34:00,26.8,14.4,29.03,ESE,112,0.0,0.0,59,0.00,,---,0.00,VWS V14.01,2013-01-06 17:34:00,
2013-01-06 12:39:00,27.0,14.9,29.03,ESE,112,0.0,0.0,60,0.00,,---,0.00,VWS V14.01,2013-01-06 17:39:00,
2013-01-06 12:44:00,27.1,15.1,29.03,ESE,112,0.0,0.0,60,0.00,,---,0.00,VWS V14.01,2013-01-06 17:44:00,
2013-01-06 12:49:00,27.3,15.3,29.00,ESE,112,0.0,0.0,60,0.00,,---,0.00,VWS V14.01,2013-01-06 17:49:00,
2013-01-06 12:54:00,27.9,16.2,29.00,ESE,112,0.0,0.0,61,0.00,,---,0.00,VWS V14.01,2013-01-06 17:54:00,
2013-01-06 12:59:00,28.6,16.9,29.00,ESE,112,0.0,0.0,61,0.00,,---,0.00,VWS V14.01,2013-01-06 17:59:00,
2013-01-06 13:04:00,28.2,16.1,29.00,ESE,112,0.0,0.0,60,0.00,,---,0.00,VWS V14.01,2013-01-06 18:04:00,
2013-01-06 13:09:00,28.2,16.1,29.00,ESE,112,0.0,0.0,60,0.00,,---,0.00,VWS V14.01,2013-01-06 18:09:00,
2013-01-06 13:14:00,28.6,16.5,29.00,ESE,112,0.0,0.0,60,0.00,,---,0.00,VWS V14.01,2013-01-06 18:14:00,
2013-01-06 13:19:00,28.4,16.3,29.00,ESE,112,0.0,0.0,60,0.00,,---,0.00,VWS V14.01,2013-01-06 18:19:00,
2013-01-06 13:24:00,28.2,16.5,29.00,ESE,112,0.0,0.0,61,0.00,,---,0.00,VWS V14.01,2013-01-06 18:24:00,
2013-01-06 13:29:00,28.0,16.0,29.00,ESE,112,0.0,0.0,60,0.00,,---,0.00,VWS V14.01,2013-01-06 18:29:00,
2013-01-06 13:34:00,28.0,16.3,29.00,ESE,112,0.0,0.0,61,0.00,,---,0.00,VWS V14.01,2013-01-06 18:34:00,
2013-01-06 13:39:00,28.2,16.5,29.00,ESE,112,0.0,0.0,61,0.00,,---,0.00,VWS V14.01,2013-01-06 18:39:00,
2013-01-06 13:44:00,28.2,16.5,29.00,ESE,112,0.0,0.0,61,0.00,,---,0.00,VWS V14.01,2013-01-06 18:44:00,
2013-01-06 13:49:00,28.2,16.9,29.00,ESE,112,0.0,0.0,62,0.00,,---,0.00,VWS V14.01,2013-01-06 18:49:00,
2013-01-06 13:54:00,28.2,16.9,29.00,ESE,112,1.6,2.5,62,0.00,,---,0.00,VWS V14.01,2013-01-06 18:54:00,
2013-01-06 13:59:00,28.4,17.1,29.00,ESE,112,0.0,0.9,62,0.00,,---,0.00,VWS V14.01,2013-01-06 18:59:00,
2013-01-06 14:04:00,28.6,17.2,29.00,ESE,112,2.0,2.0,62,0.00,,---,0.00,VWS V14.01,2013-01-06 19:04:00,
2013-01-06 14:09:00,28.8,17.4,29.00,ESE,112,0.0,0.0,62,0.00,,---,0.00,VWS V14.01,2013-01-06 19:09:00,
2013-01-06 14:14:00,28.6,17.2,29.00,ESE,112,0.0,0.0,62,0.00,,---,0.00,VWS V14.01,2013-01-06 19:14:00,
2013-01-06 14:19:00,28.6,17.6,29.00,ESE,112,0.0,0.0,63,0.00,,---,0.00,VWS V14.01,2013-01-06 19:19:00,
2013-01-06 14:24:00,28.9,17.9,29.00,ESE,112,0.0,0.0,63,0.00,,---,0.00,VWS V14.01,2013-01-06 19:24:00,
2013-01-06 14:29:00,29.1,18.1,29.00,ESE,112,0.0,0.0,63,0.00,,---,0.00,VWS V14.01,2013-01-06 19:29:00,
2013-01-06 14:34:00,29.3,18.3,29.00,ESE,112,2.7,2.7,63,0.00,,---,0.00,VWS V14.01,2013-01-06 19:34:00,
2013-01-06 14:39:00,29.5,18.8,29.00,ESE,112,1.1,1.3,64,0.00,,---,0.00,VWS V14.01,2013-01-06 19:39:00,
2013-01-06 14:44:00,29.5,18.8,29.00,ESE,112,0.0,0.0,64,0.00,,---,0.00,VWS V14.01,2013-01-06 19:44:00,
2013-01-06 14:49:00,29.5,18.8,29.00,ESE,112,2.7,2.7,64,0.00,,---,0.00,VWS V14.01,2013-01-06 19:49:00,
2013-01-06 14:54:00,29.7,19.0,29.00,ESE,112,1.3,2.9,64,0.00,,---,0.00,VWS V14.01,2013-01-06 19:54:00,
2013-01-06 14:59:00,30.0,19.3,29.00,ESE,112,2.0,2.0,64,0.00,,---,0.00,VWS V14.01,2013-01-06 19:59:00,
2013-01-06 15:04:00,30.2,19.5,29.00,ESE,112,0.0,0.0,64,0.00,,---,0.00,VWS V14.01,2013-01-06 20:04:00,
2013-01-06 15:09:00,30.2,19.5,29.00,ESE,112,0.0,1.3,64,0.00,,---,0.00,VWS V14.01,2013-01-06 20:09:00,
2013-01-06 15:11:00,30.4,19.3,29.00,ESE,112,0.0,1.6,63,0.00,,---,0.00,VWS V14.01,2013-01-06 20:11:00,
2013-01-06 15:13:00,30.6,19.5,29.00,ESE,112,0.0,0.0,63,0.00,,---,0.00,VWS V14.01,2013-01-06 20:13:00,
2013-01-06 15:18:00,30.4,19.7,29.00,ESE,112,0.0,0.0,64,0.00,,---,0.00,VWS V14.01,2013-01-06 20:18:00,
2013-01-06 15:23:00,30.2,19.5,29.00,ESE,112,0.0,0.0,64,0.00,,---,0.00,VWS V14.01,2013-01-06 20:23:00,
2013-01-06 15:28:00,30.2,19.5,29.00,ESE,112,0.0,0.0,64,0.00,,---,0.00,VWS V14.01,2013-01-06 20:28:00,
2013-01-06 15:33:00,29.8,19.2,29.00,ESE,112,0.0,0.0,64,0.00,,---,0.00,VWS V14.01,2013-01-06 20:33:00,
2013-01-06 15:38:00,29.7,19.0,29.00,ESE,112,0.0,0.0,64,0.00,,---,0.00,VWS V14.01,2013-01-06 20:38:00,
2013-01-06 15:43:00,29.5,18.8,29.00,ESE,112,2.0,2.0,64,0.00,,---,0.00,VWS V14.01,2013-01-06 20:43:00,
2013-01-06 15:48:00,29.7,19.0,29.00,ESE,112,2.0,2.0,64,0.00,,---,0.00,VWS V14.01,2013-01-06 20:48:00,
2013-01-06 15:53:00,29.8,19.2,29.00,ESE,112,2.2,2.2,64,0.00,,---,0.00,VWS V14.01,2013-01-06 20:53:00,
2013-01-06 15:58:00,29.7,19.4,29.00,ESE,112,0.0,0.0,65,0.00,,---,0.00,VWS V14.01,2013-01-06 20:58:00,
2013-01-06 16:01:00,29.5,19.2,29.00,ESE,112,2.7,2.7,65,0.00,,---,0.00,VWS V14.01,2013-01-06 21:01:00,
2013-01-06 16:06:00,29.3,19.0,29.00,ESE,112,0.0,0.0,65,0.00,,---,0.00,VWS V14.01,2013-01-06 21:06:00,
2013-01-06 16:11:00,29.3,19.4,29.00,ESE,112,2.0,2.0,66,0.00,,---,0.00,VWS V14.01,2013-01-06 21:11:00,
2013-01-06 16:16:00,29.3,19.4,29.00,ESE,112,2.2,2.2,66,0.00,,---,0.00,VWS V14.01,2013-01-06 21:16:00,
2013-01-06 16:21:00,29.5,19.5,29.00,ESE,112,0.0,1.6,66,0.00,,---,0.00,VWS V14.01,2013-01-06 21:21:00,
2013-01-06 16:26:00,29.5,19.5,29.00,ESE,112,0.0,1.3,66,0.00,,---,0.00,VWS V14.01,2013-01-06 21:26:00,
2013-01-06 16:31:00,29.3,19.4,29.00,ESE,112,0.0,0.0,66,0.00,,---,0.00,VWS V14.01,2013-01-06 21:31:00,
2013-01-06 16:36:00,28.9,19.4,29.00,ESE,112,0.0,0.0,67,0.00,,---,0.00,VWS V14.01,2013-01-06 21:36:00,
2013-01-06 16:41:00,28.9,19.4,29.00,ESE,112,0.0,0.0,67,0.00,,---,0.00,VWS V14.01,2013-01-06 21:41:00,
2013-01-06 16:46:00,28.9,19.4,29.00,ESE,112,0.0,0.0,67,0.00,,---,0.00,VWS V14.01,2013-01-06 21:46:00,
2013-01-06 16:51:00,28.9,19.4,29.00,ESE,112,0.0,0.0,67,0.00,,---,0.00,VWS V14.01,2013-01-06 21:51:00,
2013-01-06 16:56:00,28.6,19.0,29.00,ESE,112,0.0,0.0,67,0.00,,---,0.00,VWS V14.01,2013-01-06 21:56:00,
2013-01-06 17:01:00,28.6,19.0,29.00,ESE,112,0.0,0.0,67,0.00,,---,0.00,VWS V14.01,2013-01-06 22:01:00,
2013-01-06 17:06:00,28.6,19.0,29.00,ESE,112,0.0,0.0,67,0.00,,---,0.00,VWS V14.01,2013-01-06 22:06:00,
2013-01-06 17:11:00,28.6,19.0,29.00,ESE,112,0.0,0.0,67,0.00,,---,0.00,VWS V14.01,2013-01-06 22:11:00,
2013-01-06 17:16:00,28.6,19.0,29.00,ESE,112,0.0,1.1,67,0.00,,---,0.00,VWS V14.01,2013-01-06 22:16:00,
2013-01-06 17:21:00,28.6,19.0,29.00,ESE,112,0.0,0.0,67,0.00,,---,0.00,VWS V14.01,2013-01-06 22:21:00,
2013-01-06 17:26:00,28.6,19.0,29.00,ESE,112,0.0,0.0,67,0.00,,---,0.00,VWS V14.01,2013-01-06 22:26:00,
2013-01-06 17:31:00,28.6,19.0,29.00,ESE,112,0.0,0.0,67,0.00,,---,0.00,VWS V14.01,2013-01-06 22:31:00,
2013-01-06 17:36:00,28.6,19.0,29.00,ESE,112,0.0,0.0,67,0.00,,---,0.00,VWS V14.01,2013-01-06 22:36:00,
2013-01-06 17:41:00,28.9,19.7,29.00,ESE,112,0.9,1.6,68,0.00,,---,0.00,VWS V14.01,2013-01-06 22:41:00,
2013-01-06 17:46:00,28.9,19.7,29.00,ESE,112,1.3,1.6,68,0.00,,---,0.00,VWS V14.01,2013-01-06 22:46:00,
2013-01-06 17:51:00,29.1,20.2,29.00,ESE,112,0.0,0.0,69,0.00,,---,0.00,VWS V14.01,2013-01-06 22:51:00,
2013-01-06 17:56:00,29.1,20.2,29.00,ESE,112,0.0,0.0,69,0.00,,---,0.00,VWS V14.01,2013-01-06 22:56:00,
2013-01-06 18:01:00,29.1,20.2,29.00,ESE,112,0.0,0.0,69,0.00,,---,0.00,VWS V14.01,2013-01-06 23:01:00,
2013-01-06 18:06:00,29.1,20.2,29.00,ESE,112,0.0,0.0,69,0.00,,---,0.00,VWS V14.01,2013-01-06 23:06:00,
2013-01-06 18:11:00,29.1,20.2,29.00,ESE,112,1.1,1.3,69,0.00,,---,0.00,VWS V14.01,2013-01-06 23:11:00,
2013-01-06 18:16:00,29.1,20.6,29.00,ESE,112,0.0,0.0,70,0.00,,---,0.00,VWS V14.01,2013-01-06 23:16:00,
2013-01-06 18:21:00,29.1,20.6,29.00,ESE,112,0.0,0.0,70,0.00,,---,0.00,VWS V14.01,2013-01-06 23:21:00,
2013-01-06 18:26:00,29.1,20.6,29.00,ESE,112,0.0,0.0,70,0.00,,---,0.00,VWS V14.01,2013-01-06 23:26:00,
2013-01-06 18:31:00,29.1,20.6,29.00,ESE,112,0.0,0.0,70,0.00,,---,0.00,VWS V14.01,2013-01-06 23:31:00,
2013-01-06 18:36:00,29.3,20.7,29.00,ESE,112,0.0,2.0,70,0.00,,---,0.00,VWS V14.01,2013-01-06 23:36:00,
2013-01-06 18:41:00,29.3,20.7,29.00,ESE,112,0.0,0.0,70,0.00,,---,0.00,VWS V14.01,2013-01-06 23:41:00,
2013-01-06 18:46:00,29.5,20.9,29.00,ESE,112,0.0,0.0,70,0.00,,---,0.00,VWS V14.01,2013-01-06 23:46:00,
2013-01-06 18:51:00,29.5,20.9,29.00,ESE,112,1.1,1.3,70,0.00,,---,0.00,VWS V14.01,2013-01-06 23:51:00,
2013-01-06 18:56:00,29.5,20.9,29.00,ESE,112,0.0,0.0,70,0.00,,---,0.00,VWS V14.01,2013-01-06 23:56:00,
2013-01-06 19:01:00,29.5,20.9,29.00,ESE,112,1.6,1.6,70,0.00,,---,0.00,VWS V14.01,2013-01-07 00:01:00,
2013-01-06 19:06:00,29.3,20.7,29.00,ESE,112,1.3,2.2,70,0.00,,---,0.00,VWS V14.01,2013-01-07 00:06:00,
2013-01-06 19:11:00,29.1,20.9,29.00,ESE,112,1.1,1.1,71,0.00,,---,0.00,VWS V14.01,2013-01-07 00:11:00,
2013-01-06 19:16:00,29.3,21.1,29.00,ESE,112,0.0,0.0,71,0.00,,---,0.00,VWS V14.01,2013-01-07 00:16:00,
2013-01-06 19:21:00,29.1,20.9,29.00,ESE,112,0.0,0.0,71,0.00,,---,0.00,VWS V14.01,2013-01-07 00:21:00,
2013-01-06 19:26:00,29.1,20.9,29.00,ESE,112,0.0,0.0,71,0.00,,---,0.00,VWS V14.01,2013-01-07 00:26:00,
2013-01-06 19:31:00,29.1,20.9,29.00,ESE,112,0.0,0.0,71,0.00,,---,0.00,VWS V14.01,2013-01-07 00:31:00,
2013-01-06 19:36:00,29.1,20.9,29.00,ESE,112,0.0,0.0,71,0.00,,---,0.00,VWS V14.01,2013-01-07 00:36:00,
2013-01-06 19:41:00,29.1,20.9,29.00,ESE,112,0.0,0.0,71,0.00,,---,0.00,VWS V14.01,2013-01-07 00:41:00,
2013-01-06 19:46:00,29.1,20.9,29.00,ESE,112,0.0,0.0,71,0.00,,---,0.00,VWS V14.01,2013-01-07 00:46:00,
2013-01-06 19:51:00,29.3,21.4,29.00,ESE,112,0.0,0.9,72,0.00,,---,0.00,VWS V14.01,2013-01-07 00:51:00,
2013-01-06 19:56:00,29.5,21.6,29.00,ESE,112,0.0,0.0,72,0.00,,---,0.00,VWS V14.01,2013-01-07 00:56:00,
2013-01-06 20:01:00,29.3,21.4,29.00,ESE,112,0.0,0.0,72,0.00,,---,0.00,VWS V14.01,2013-01-07 01:01:00,
2013-01-06 20:06:00,29.3,21.4,29.00,ESE,112,0.0,0.0,72,0.00,,---,0.00,VWS V14.01,2013-01-07 01:06:00,
2013-01-06 20:11:00,29.3,21.4,29.00,ESE,112,0.0,0.0,72,0.00,,---,0.00,VWS V14.01,2013-01-07 01:11:00,
2013-01-06 20:16:00,29.3,21.4,29.00,ESE,112,0.0,0.0,72,0.00,,---,0.00,VWS V14.01,2013-01-07 01:16:00,
2013-01-06 20:21:00,29.3,21.4,29.00,ESE,112,0.0,0.0,72,0.00,,---,0.00,VWS V14.01,2013-01-07 01:21:00,
2013-01-06 20:26:00,29.1,21.2,29.00,ESE,112,0.0,0.0,72,0.00,,---,0.00,VWS V14.01,2013-01-07 01:26:00,
2013-01-06 20:31:00,29.1,21.2,29.00,ESE,112,1.1,1.1,72,0.00,,---,0.00,VWS V14.01,2013-01-07 01:31:00,
2013-01-06 20:36:00,28.9,21.1,29.00,ESE,112,0.0,0.0,72,0.00,,---,0.00,VWS V14.01,2013-01-07 01:36:00,
2013-01-06 20:41:00,28.8,20.9,29.00,ESE,112,0.0,0.0,72,0.00,,---,0.00,VWS V14.01,2013-01-07 01:41:00,
2013-01-06 20:46:00,28.8,20.9,29.00,ESE,112,0.0,0.0,72,0.00,,---,0.00,VWS V14.01,2013-01-07 01:46:00,
2013-01-06 20:51:00,28.8,20.9,29.00,ESE,112,0.0,0.0,72,0.00,,---,0.00,VWS V14.01,2013-01-07 01:51:00,
2013-01-06 20:56:00,28.6,21.0,29.00,ESE,112,1.6,1.6,73,0.00,,---,0.00,VWS V14.01,2013-01-07 01:56:00,
2013-01-06 21:01:00,28.8,20.9,29.00,ESE,112,0.0,0.0,72,0.00,,---,0.00,VWS V14.01,2013-01-07 02:01:00,
2013-01-06 21:06:00,28.6,20.7,29.00,ESE,112,0.0,0.0,72,0.00,,---,0.00,VWS V14.01,2013-01-07 02:06:00,
2013-01-06 21:11:00,28.6,21.0,29.00,ESE,112,0.0,0.0,73,0.00,,---,0.00,VWS V14.01,2013-01-07 02:11:00,
2013-01-06 21:16:00,28.6,21.0,29.00,ESE,112,0.0,0.0,73,0.00,,---,0.00,VWS V14.01,2013-01-07 02:16:00,
2013-01-06 21:21:00,28.6,21.0,29.00,ESE,112,0.0,0.0,73,0.00,,---,0.00,VWS V14.01,2013-01-07 02:21:00,
2013-01-06 21:26:00,28.6,21.0,29.00,ESE,112,0.0,0.0,73,0.00,,---,0.00,VWS V14.01,2013-01-07 02:26:00,
2013-01-06 21:31:00,28.6,21.0,29.00,ESE,112,0.0,0.0,73,0.00,,---,0.00,VWS V14.01,2013-01-07 02:31:00,
2013-01-06 21:36:00,28.4,21.2,29.00,ESE,112,0.0,0.0,74,0.00,,---,0.00,VWS V14.01,2013-01-07 02:36:00,
2013-01-06 21:41:00,28.4,21.2,29.00,ESE,112,0.0,0.0,74,0.00,,---,0.00,VWS V14.01,2013-01-07 02:41:00,
2013-01-06 21:46:00,28.4,21.2,29.00,ESE,112,0.0,0.0,74,0.00,,---,0.00,VWS V14.01,2013-01-07 02:46:00,
2013-01-06 21:51:00,28.2,21.0,29.03,ESE,112,0.0,0.0,74,0.00,,---,0.00,VWS V14.01,2013-01-07 02:51:00,
2013-01-06 21:56:00,28.2,21.0,29.03,ESE,112,0.0,0.0,74,0.00,,---,0.00,VWS V14.01,2013-01-07 02:56:00,
2013-01-06 22:01:00,28.2,21.0,29.03,ESE,112,0.0,0.0,74,0.00,,---,0.00,VWS V14.01,2013-01-07 03:01:00,
2013-01-06 22:06:00,28.2,21.0,29.03,ESE,112,0.0,0.0,74,0.00,,---,0.00,VWS V14.01,2013-01-07 03:06:00,
2013-01-06 22:11:00,28.2,21.0,29.03,ESE,112,0.0,0.0,74,0.00,,---,0.00,VWS V14.01,2013-01-07 03:11:00,
2013-01-06 22:16:00,28.2,21.0,29.03,ESE,112,0.0,0.0,74,0.00,,---,0.00,VWS V14.01,2013-01-07 03:16:00,
2013-01-06 22:21:00,28.2,21.0,29.03,ESE,112,0.0,0.0,74,0.00,,---,0.00,VWS V14.01,2013-01-07 03:21:00,
2013-01-06 22:25:00,28.4,21.2,29.03,ESE,112,0.0,0.0,74,0.00,,---,0.00,VWS V14.01,2013-01-07 03:25:00,
2013-01-06 22:30:00,28.4,21.2,29.03,ESE,112,0.0,0.0,74,0.00,,---,0.00,VWS V14.01,2013-01-07 03:30:00,
2013-01-06 22:35:00,28.4,21.2,29.03,ESE,112,0.0,0.0,74,0.00,,---,0.00,VWS V14.01,2013-01-07 03:35:00,
2013-01-06 22:40:00,28.4,21.2,29.03,ESE,112,0.0,0.0,74,0.00,,---,0.00,VWS V14.01,2013-01-07 03:40:00,
2013-01-06 22:45:00,28.4,21.2,29.03,ESE,112,0.0,0.0,74,0.00,,---,0.00,VWS V14.01,2013-01-07 03:45:00,
2013-01-06 22:50:00,28.4,21.2,29.03,ESE,112,0.0,0.0,74,0.00,,---,0.00,VWS V14.01,2013-01-07 03:50:00,
2013-01-06 22:55:00,28.4,21.2,29.03,ESE,112,0.0,0.0,74,0.00,,---,0.00,VWS V14.01,2013-01-07 03:55:00,
2013-01-06 23:00:00,28.4,21.2,29.03,ESE,112,0.0,0.0,74,0.00,,---,0.00,VWS V14.01,2013-01-07 04:00:00,
2013-01-06 23:05:00,28.4,21.2,29.06,ESE,112,0.0,0.0,74,0.00,,---,0.00,VWS V14.01,2013-01-07 04:05:00,
2013-01-06 23:10:00,28.4,21.2,29.06,ESE,112,0.0,0.0,74,0.00,,---,0.00,VWS V14.01,2013-01-07 04:10:00,
2013-01-06 23:15:00,28.4,21.2,29.06,ESE,112,0.0,0.0,74,0.00,,---,0.00,VWS V14.01,2013-01-07 04:15:00,
2013-01-06 23:20:00,28.4,21.2,29.06,ESE,112,0.0,0.0,74,0.00,,---,0.00,VWS V14.01,2013-01-07 04:20:00,
2013-01-06 23:25:00,28.4,21.2,29.06,ESE,112,0.0,0.0,74,0.00,,---,0.00,VWS V14.01,2013-01-07 04:25:00,
2013-01-06 23:30:00,28.4,21.2,29.06,ESE,112,0.0,0.0,74,0.00,,---,0.00,VWS V14.01,2013-01-07 04:30:00,
2013-01-06 23:35:00,28.4,21.2,29.06,ESE,112,0.0,0.0,74,0.00,,---,0.00,VWS V14.01,2013-01-07 04:35:00,
2013-01-06 23:40:00,28.4,21.2,29.06,ESE,112,0.0,0.0,74,0.00,,---,0.00,VWS V14.01,2013-01-07 04:40:00,
2013-01-06 23:45:00,28.4,21.2,29.06,ESE,112,0.0,0.0,74,0.00,,---,0.00,VWS V14.01,2013-01-07 04:45:00,
2013-01-06 23:50:00,28.8,21.5,29.06,ESE,112,0.0,0.0,74,0.00,,---,0.00,VWS V14.01,2013-01-07 04:50:00,
2013-01-06 23:55:00,28.8,21.5,29.06,ESE,112,0.0,0.0,74,0.00,,---,0.00,VWS V14.01,2013-01-07 04:55:00,